This is the latest recevied weather packets stored in our database for station/object KE8DAF-15. If no packets are shown the sender has not sent any weather packets the latest 10 day(s).
| Time | Temp. | Humidity | Pressure | Rain* | Wind** | Luminosity | Snow |
|---|---|---|---|---|---|---|---|
| 1787867273 | 20° C | 67% | 1001.1 hPa | 0 mm | - | - | - |
| 1787866973 | 20.56° C | 70% | 1001.1 hPa | 0 mm | - | - | - |
| 1787866673 | 20° C | 68% | 1000.9 hPa | 0 mm | - | - | - |
| 1787866373 | 20.56° C | 69% | 1000.9 hPa | 0 mm | - | - | - |
| 1787866073 | 20.56° C | 68% | 1000.8 hPa | 0 mm | - | - | - |
| 1787865773 | 20.56° C | 69% | 1000.8 hPa | 0 mm | - | - | - |
| 1787865473 | 20.56° C | 69% | 1000.7 hPa | 0 mm | - | - | - |
| 1787865173 | 20.56° C | 67% | 1000.7 hPa | 0 mm | - | - | - |
| 1787864873 | 20.56° C | 66% | 1000.6 hPa | 0 mm | - | - | - |
| 1787864573 | 21.11° C | 67% | 1000.5 hPa | 0 mm | - | - | - |
| 1787864273 | 21.11° C | 67% | 1000.5 hPa | 0 mm | - | - | - |
| 1787863973 | 21.11° C | 67% | 1000.5 hPa | 0 mm | - | - | - |
| 1787863673 | 21.11° C | 67% | 1000.6 hPa | 0 mm | - | - | - |
| 1787863373 | 21.11° C | 66% | 1000.4 hPa | 0 mm | - | - | - |
| 1787863073 | 21.67° C | 65% | 1000.4 hPa | 0 mm | - | - | - |
| 1787862773 | 21.67° C | 64% | 1000.4 hPa | 0 mm | - | - | - |
| 1787862473 | 21.67° C | 65% | 1000.4 hPa | 0 mm | - | - | - |
| 1787862173 | 21.67° C | 65% | 1000.3 hPa | 0 mm | - | - | - |
| 1787861873 | 21.67° C | 67% | 1000.3 hPa | 0 mm | - | - | - |
| 1787861573 | 21.67° C | 67% | 1000.3 hPa | 0 mm | - | - | - |
| 1787861273 | 21.67° C | 62% | 1000.4 hPa | 0 mm | - | - | - |
| 1787860973 | 21.67° C | 66% | 1000.4 hPa | 0 mm | - | - | - |
| 1787860673 | 21.67° C | 69% | 1000.3 hPa | 0 mm | - | - | - |
| 1787860373 | 21.11° C | 70% | 1000.3 hPa | 0 mm | - | - | - |
| 1787860073 | 21.67° C | 72% | 1000.3 hPa | 0 mm | - | - | - |
* Rain latest hour (hover to see other rain measurements)
** Current wind speed in m/s (hover to see current wind gust speed)